SCP
0 0 0 0 0 0 0 0 0 0 -0 0 0 0 0 0 0 0 0 0 0 0 0 0 0 0 0 0 0 0 0 0 0 0 0 0 0 0 0 0 0 0 0 0
0 0 0 0 0 0 0 0 0 0 0 0 0 0 0 0 0 0 0 0 0 0 0 0 0 0 0 0 0 0 0 0 0 0 0 0 0 0 0 0 0 0 0 0
0 0 0 0 -0 -0 0 0 0 0 0 0 0 0 0 0 0 0 0 0 0 0 0 0 0 0 0 0 0 0 0 0 0 0 0 0 0 0 0 0 0 0 0 0
0 0 0 0 -0 0 0 0 0 0 0 0 0 0 0 0 0 0 0 0 0 0 0 0 0 0 0 0 0 0 0 0 0 0 0 0 0 0 0 0 0 0 0 0
0 -0 -0 -0 0 0 0 0 0 0 0 0 0 0 0 0 0 0 0 0 0 0 0 0 0 0 0 0 0 0 0 0 0 0 0 0 0 0 0 0 0 0 0 0
0 0 0 0 0 0 0 0 0 0 0 0 0 0 0 0 0 0 0 0 0 0 0 0 0 0 0 -0 -0 -0 0 0 0 0 0 0 0 0 0 0 0 0 0 0
0 0 -0 0 0 0 0 0 0 0 0 0 0 0 0 0 0 0 0 0 0 0 0 0 0 0 0 0 0 0 0 0 0 0 0 0 0 0 0 0 0 0 0 0
0 0 -0 -0 -0 0 -0 -0 -0 0 0 0 0 0 0 0 0 0 0 0 0 0 0 0 0 0 0 0 0 0 0 0 0 0 0 0 0 0 0 0 0 0 0 0
0 0 -0 -0 -0 0 -0 0 0 0 0 0 0 0 0 0 0 0 0 0 0 0 0 0 0 0 0 0 0 0 0 0 0 0 0 0 0 0 0 0 0 0 0 0
-0 0 -0 -0 0 -0 0 0 0 0 0 0 0 0 0 0 0 0 0 0 0 0 0 0 0 0 0 0 0 0 0 0 0 0 0 0 0 0 0 0 0 0 0 0
0 -0 -0 -0 0 0 0 0 0 0 0 0 0 0 0 0 0 0 0 0 0 0 0 0 0 0 0 0 0 0 0 0 0 0 0 0 0 0 0 0 0 0 0 0
0 -0 0 -0 -0 0 0 0 0 0 0 0 0 0 0 0 0 0 0 0 0 0 0 0 0 0 0 0 0 0 0 0 0 0 0 0 0 0 0 0 0 0 0 0
0 0 -0 -0 -0 0 0 0 0 0 0 0 0 0 0 0 0 0 0 0 0 0 0 0 0 0 0 0 0 0 0 0 0 0 0 0 0 0 0 0 0 0 0 0
0 0 0 0 0 0 0 0 0 0 0 0 0 0 0 0 0 0 0 0 0 0 0 0 0 0 0 0 0 0 0 0 0 0 0 0 0 0 0 0 0 0 0 0
0 0 0 0 0 0 0 0 0 0 0 0 0 0 0 0 0 0 0 0 0 0 0 0 0 0 0 0 0 0 0 0 0 0 0 0 0 0 0 0 0 0 0 0
0 0 0 0 0 0 0 0 0 0 0 0 0 0 0 0 0 0 0 0 0 0 0 0 0 0 0 0 0 0 0 0 0 0 0 0 0 0 0 0 0 0 0 0
0 0 0 0 0 0 0 0 0 0 0 0 0 0 0 0 0 0 0 0 0 0 0 0 0 0 0 0 0 0 0 0 0 0 0 0 0 0 0 0 0 0 0 0
0 0 0 0 0 0 0 0 0 0 0 0 0 0 0 0 0 0 0 0 0 0 0 0 0 0 0 0 0 0 0 0 0 0 0 0 0 0 0 0 0 0 0 0
0 0 0 0 0 0 0 0 0 0 0 0 0 0 0 0 0 0 0 0 0 0 0 0 0 0 0 0 0 0 0 0 0 0 0 0 0 0 0 0 0 0 0 0
0 0 0 0 0 0 0 0 0 0 0 0 0 0 0 0 0 0 0 0 0 0 0 0 0 0 0 0 0 0 0 0 0 0 0 0 0 0 0 0 0 0 0 0
0 0 0 0 0 0 0 0 0 0 0 0 0 0 0 0 0 0 0 0 0 0 0 0 0 0 0 0 0 0 0 0 0 0 0 0 0 0 0 0 0 0 0 0
0 0 0 0 0 0 0 0 0 0 0 0 0 0 0 0 0 0 0 0 0 0 0 0 0 0 0 0 0 0 0 0 0 0 0 0 0 0 0 0 0 0 0 0
0 0 0 0 0 0 0 0 0 0 0 0 0 0 0 0 0 0 0 0 0 0 0 0 0 0 0 0 0 0 0 0 0 0 0 0 0 0 0 0 0 0 0 0
0 0 0 0 0 0 0 0 0 0 0 0 0 0 0 0 0 0 0 0 0 0 0 0 0 0 0 0 0 0 0 0 0 0 0 0 0 0 0 0 0 0 0 0
0 0 0 0 0 0 0 0 0 0 0 0 0 0 0 0 0 0 0 0 0 0 0 0 0 0 0 0 0 0 0 0 0 0 0 0 0 0 0 0 0 0 0 0
0 0 0 0 0 0 0 0 0 0 0 0 0 0 0 0 0 0 0 0 0 0 0 0 0 0 0 0 0 0 0 0 0 0 0 0 0 0 0 0 0 0 0 0
Wind_Speed_500mb
17 11 7 7 5 7 8 10 21 8 10 4 6 6 13 39 21 43 55 66 67 67 48 46 46 34 27 38 41 44 43 38 28 27 21 19 17 12 7 11 15 20 30 37
6 9 5 7 4 6 9 13 9 8 9 6 3 3 14 31 27 50 63 66 63 57 48 40 29 36 30 21 12 12 13 22 17 16 17 17 12 7 10 16 21 33 38 47
14 3 7 7 16 17 15 11 10 7 12 8 3 5 15 17 50 64 62 58 50 46 42 33 28 26 20 18 8 4 2 2 8 7 9 11 10 17 24 30 40 40 41 52
13 2 8 10 15 12 9 11 10 11 7 5 9 2 9 19 25 40 56 61 59 54 44 33 24 19 15 15 12 16 19 22 19 17 21 31 28 26 31 36 35 39 47 43
5 13 16 17 7 9 4 1 6 6 8 6 12 9 6 25 24 20 40 45 41 37 33 27 17 14 15 15 17 13 14 25 35 34 36 29 21 22 13 23 34 38 39 44
8 20 9 9 8 4 9 8 9 7 4 4 13 8 4 8 24 11 36 41 34 29 17 9 9 7 10 13 18 18 6 7 21 23 19 24 26 26 28 39 46 44 51 56
9 9 6 9 7 2 8 12 6 8 8 7 12 12 4 8 17 28 36 44 32 27 27 26 23 15 4 9 10 8 13 26 30 22 22 25 29 34 39 42 45 48 49 46
10 6 12 14 10 3 9 8 8 2 2 8 10 8 1 21 48 49 38 27 25 24 23 13 5 2 4 9 9 15 20 22 24 28 32 29 32 37 38 40 46 40 40 36
7 6 7 12 7 7 10 10 3 10 3 7 4 9 10 16 18 29 21 19 28 23 25 20 26 16 7 11 17 18 19 21 28 30 33 35 34 39 37 39 29 34 32 38
10 9 6 5 3 10 11 3 11 7 3 4 4 8 6 5 10 7 15 25 31 39 38 28 25 19 17 19 27 34 36 36 32 34 37 42 42 34 34 27 29 32 42 58
9 7 5 4 9 8 9 5 8 4 9 7 2 6 6 12 10 8 30 31 36 31 30 27 25 26 28 31 34 35 38 40 44 44 48 51 48 38 38 47 51 53 61 53
6 9 6 6 4 3 1 6 9 8 6 3 8 10 9 18 33 33 31 33 26 26 20 19 21 24 31 41 45 50 49 36 30 44 51 40 48 50 53 55 51 56 49 38
6 4 5 9 8 9 2 6 10 11 7 8 9 10 9 10 18 7 13 28 27 22 22 17 20 35 39 43 50 38 37 35 48 55 50 44 39 50 51 53 52 38 40 41
5 5 10 10 5 1 4 11 8 12 7 8 12 13 22 10 6 26 31 30 31 27 20 27 41 38 38 36 36 38 46 45 55 57 55 70 74 53 40 38 31 33 45 38
6 6 8 8 10 8 8 11 13 9 10 10 14 12 10 19 16 25 23 23 25 25 30 35 37 35 33 35 38 35 46 49 51 57 64 68 53 40 47 68 50 42 33 30
7 2 3 3 13 15 9 14 14 15 12 8 7 8 26 32 32 29 27 26 26 28 32 40 31 32 36 39 42 49 38 38 51 64 66 65 56 58 67 52 38 26 26 28
6 7 5 5 9 10 9 5 9 6 6 3 4 3 24 23 30 32 30 23 23 27 31 31 32 36 42 38 33 29 43 52 58 58 65 54 65 74 61 41 26 29 29 26
8 6 5 4 8 4 9 5 8 11 9 13 21 19 29 27 31 26 15 17 23 27 29 33 34 35 38 30 38 43 52 60 60 64 60 67 75 74 58 38 34 20 24 35
9 8 6 5 1 11 10 4 6 7 5 14 15 18 20 16 15 22 17 23 17 23 26 32 32 35 35 41 45 55 62 61 53 49 58 68 71 57 49 37 30 33 32 34
13 12 8 4 8 12 10 8 11 5 7 9 18 15 14 10 4 7 24 20 15 22 27 34 37 39 42 44 55 59 58 46 44 52 58 66 64 51 50 31 15 25 30 25
6 5 9 8 5 14 16 10 9 7 12 14 15 9 5 4 9 13 17 12 22 26 30 33 37 40 42 54 63 51 39 49 49 58 65 58 55 44 34 20 22 22 29 32
14 12 8 6 6 15 23 12 15 12 11 23 16 3 7 10 10 10 12 22 27 30 31 36 39 42 52 51 41 43 47 47 54 62 65 55 43 33 23 26 26 25 28 35
3 14 12 18 13 19 27 27 27 16 9 20 4 1 6 4 8 9 20 24 28 32 38 40 42 51 44 42 44 47 51 58 67 71 49 42 28 27 23 20 20 31 35 38
5 27 7 8 14 23 20 19 20 22 22 16 4 4 4 11 11 15 18 27 29 33 32 38 47 42 45 48 45 52 59 69 68 54 49 33 24 23 25 31 36 32 35 40
12 5 3 7 7 1 12 20 31 28 16 7 8 9 7 4 9 18 21 27 32 37 44 43 45 47 52 57 64 67 60 56 57 49 37 26 27 29 26 27 24 32 39 43
13 10 6 11 7 12 23 30 21 15 18 15 14 9 3 9 11 18 26 31 38 42 48 51 54 58 58 63 69 58 48 52 51 50 32 31 24 25 21 24 29 32 36 31
Wind_Direction_500mb
233 67 120 115 28 308 357 30 111 98 77 63 265 74 94 59 84 73 90 95 93 90 93 93 87 102 102 95 117 138 142 151 154 181 199 212 186 190 262 289 291 301 303 304
358 100 19 289 112 356 342 29 42 111 127 106 1 56 103 75 63 92 96 93 92 85 79 79 82 82 87 104 109 118 137 174 178 192 210 223 251 284 305 301 299 302 298 299
106 132 277 8 50 21 46 77 24 33 343 337 330 101 98 80 81 80 89 94 90 93 90 86 88 94 94 84 69 6 35 185 234 228 257 267 259 272 268 273 296 305 298 302
91 13 332 58 55 32 63 19 4 332 12 229 118 24 130 116 91 84 80 83 92 94 92 86 80 81 76 82 62 34 3 355 356 329 312 309 312 315 312 297 294 297 305 304
73 54 33 57 46 24 140 273 271 311 306 356 312 73 276 115 100 99 97 94 89 91 91 84 53 36 45 47 27 33 24 353 348 337 327 325 316 305 287 282 295 298 295 299
93 83 45 358 302 240 280 287 257 248 170 25 297 133 281 117 135 112 108 106 107 107 105 102 115 86 13 357 7 13 66 3 8 343 306 292 293 291 283 291 299 301 308 313
104 89 154 350 312 9 8 32 2 2 18 220 316 57 235 176 140 140 118 106 107 114 125 131 145 148 99 353 6 354 306 306 296 292 295 288 286 287 289 293 302 315 320 325
129 19 2 347 64 6 317 81 125 77 59 282 326 86 45 81 88 101 115 137 156 173 170 158 164 262 41 48 355 317 311 309 291 286 287 295 298 297 298 305 319 327 322 319
98 97 60 46 343 32 350 45 189 107 337 50 139 77 58 103 107 124 132 149 164 180 139 112 87 84 53 348 342 339 325 300 293 289 288 300 311 314 322 327 324 317 310 313
13 100 351 141 326 6 107 218 42 2 90 303 2 125 210 188 110 56 65 88 82 84 92 75 67 56 31 0 340 327 323 316 308 311 316 313 314 323 318 302 303 303 309 316
16 83 260 30 35 46 14 15 26 83 117 153 356 288 131 95 113 140 99 92 90 69 46 33 19 5 352 342 341 332 319 317 324 321 319 313 308 299 294 295 292 296 310 314
17 127 70 123 93 11 313 81 87 107 305 46 142 283 95 96 69 56 71 82 72 63 50 25 0 341 338 331 328 327 323 335 327 321 316 313 314 299 293 288 288 299 313 321
352 38 55 9 4 321 318 127 119 115 102 172 126 260 80 85 18 44 102 88 77 57 53 31 356 348 337 333 335 348 340 333 324 321 314 306 287 283 299 300 300 291 305 297
35 84 143 173 182 141 343 332 334 140 114 211 206 242 275 119 80 73 67 56 65 60 32 359 349 352 346 344 346 339 334 331 325 313 312 313 314 298 293 284 284 299 318 286
75 99 39 343 330 332 346 339 332 313 246 170 248 229 106 115 106 74 52 53 53 28 360 357 348 349 351 341 339 336 332 333 337 333 334 324 319 293 287 296 268 310 292 297
28 188 83 301 22 16 307 292 270 260 284 303 32 74 114 93 65 53 66 68 41 9 354 350 356 347 340 334 328 331 332 333 334 339 342 336 315 310 310 293 306 300 279 290
81 118 77 263 350 354 7 263 316 319 354 303 305 86 86 59 58 76 68 43 16 357 357 357 351 340 332 333 335 334 332 333 338 337 334 331 333 334 328 309 319 270 289 304
119 88 87 220 6 46 223 328 56 110 52 3 84 76 71 59 105 92 57 20 1 2 359 345 340 338 337 334 327 330 335 335 334 329 322 322 330 332 320 302 300 265 291 329
116 110 75 115 211 300 323 57 92 103 318 62 93 74 57 26 132 103 31 15 16 352 338 334 340 340 337 333 332 335 334 331 330 321 320 326 329 329 317 298 260 278 338 307
46 88 109 80 137 211 228 126 96 54 261 92 96 74 45 60 100 253 341 347 347 332 334 338 339 338 335 333 335 335 331 326 322 321 325 327 334 330 335 338 347 323 310 311
47 351 145 173 215 281 249 171 106 117 234 142 127 116 105 178 239 297 326 332 332 331 334 332 332 339 333 329 331 326 324 321 319 320 323 328 328 328 331 335 329 319 312 314
163 153 193 190 209 275 225 134 155 187 154 163 141 185 185 296 284 309 319 330 328 332 330 331 333 327 326 332 331 329 322 318 318 321 322 326 327 331 333 330 322 316 320 323
168 184 181 182 212 225 189 221 202 214 250 174 151 90 299 230 289 322 330 329 338 334 330 330 323 325 333 322 329 322 320 319 321 324 324 325 332 330 335 324 321 322 323 323
265 192 193 114 240 234 240 179 194 195 183 172 210 146 193 273 316 328 336 337 335 335 331 326 333 333 327 325 320 317 319 319 320 328 321 322 322 325 318 312 316 319 318 326
217 341 236 253 265 92 126 178 164 150 159 196 154 172 184 293 327 334 336 330 330 324 325 331 330 325 326 316 314 317 318 316 317 318 320 312 307 313 315 318 314 314 321 326
219 198 172 238 237 212 149 154 154 159 167 178 151 179 232 317 326 322 324 323 316 316 319 321 318 317 315 310 311 317 314 314 313 318 317 322 315 314 309 300 304 310 315 328
Wind_Speed_850mb
17 11 7 7 5 7 8 10 21 8 10 4 6 6 13 39 21 43 55 66 67 67 48 46 46 34 27 38 41 44 43 38 28 27 21 19 17 12 7 11 15 20 30 37
6 9 5 7 4 6 9 13 9 8 9 6 3 3 14 31 27 50 63 66 63 57 48 40 29 36 30 21 12 12 13 22 17 16 17 17 12 7 10 16 21 33 38 47
14 3 7 7 16 17 15 11 10 7 12 8 3 5 15 17 50 64 62 58 50 46 42 33 28 26 20 18 8 4 2 2 8 7 9 11 10 17 24 30 40 40 41 52
13 2 8 10 15 12 9 11 10 11 7 5 9 2 9 19 25 40 56 61 59 54 44 33 24 19 15 15 12 16 19 22 19 17 21 31 28 26 31 36 35 39 47 43
5 13 16 17 7 9 4 1 6 6 8 6 12 9 6 25 24 20 40 45 41 37 33 27 17 14 15 15 17 13 14 25 35 34 36 29 21 22 13 23 34 38 39 44
8 20 9 9 8 4 9 8 9 7 4 4 13 8 4 8 24 11 36 41 34 29 17 9 9 7 10 13 18 18 6 7 21 23 19 24 26 26 28 39 46 44 51 56
9 9 6 9 7 2 8 12 6 8 8 7 12 12 4 8 17 28 36 44 32 27 27 26 23 15 4 9 10 8 13 26 30 22 22 25 29 34 39 42 45 48 49 46
10 6 12 14 10 3 9 8 8 2 2 8 10 8 1 21 48 49 38 27 25 24 23 13 5 2 4 9 9 15 20 22 24 28 32 29 32 37 38 40 46 40 40 36
7 6 7 12 7 7 10 10 3 10 3 7 4 9 10 16 18 29 21 19 28 23 25 20 26 16 7 11 17 18 19 21 28 30 33 35 34 39 37 39 29 34 32 38
10 9 6 5 3 10 11 3 11 7 3 4 4 8 6 5 10 7 15 25 31 39 38 28 25 19 17 19 27 34 36 36 32 34 37 42 42 34 34 27 29 32 42 58
9 7 5 4 9 8 9 5 8 4 9 7 2 6 6 12 10 8 30 31 36 31 30 27 25 26 28 31 34 35 38 40 44 44 48 51 48 38 38 47 51 53 61 53
6 9 6 6 4 3 1 6 9 8 6 3 8 10 9 18 33 33 31 33 26 26 20 19 21 24 31 41 45 50 49 36 30 44 51 40 48 50 53 55 51 56 49 38
6 4 5 9 8 9 2 6 10 11 7 8 9 10 9 10 18 7 13 28 27 22 22 17 20 35 39 43 50 38 37 35 48 55 50 44 39 50 51 53 52 38 40 41
5 5 10 10 5 1 4 11 8 12 7 8 12 13 22 10 6 26 31 30 31 27 20 27 41 38 38 36 36 38 46 45 55 57 55 70 74 53 40 38 31 33 45 38
6 6 8 8 10 8 8 11 13 9 10 10 14 12 10 19 16 25 23 23 25 25 30 35 37 35 33 35 38 35 46 49 51 57 64 68 53 40 47 68 50 42 33 30
7 2 3 3 13 15 9 14 14 15 12 8 7 8 26 32 32 29 27 26 26 28 32 40 31 32 36 39 42 49 38 38 51 64 66 65 56 58 67 52 38 26 26 28
6 7 5 5 9 10 9 5 9 6 6 3 4 3 24 23 30 32 30 23 23 27 31 31 32 36 42 38 33 29 43 52 58 58 65 54 65 74 61 41 26 29 29 26
8 6 5 4 8 4 9 5 8 11 9 13 21 19 29 27 31 26 15 17 23 27 29 33 34 35 38 30 38 43 52 60 60 64 60 67 75 74 58 38 34 20 24 35
9 8 6 5 1 11 10 4 6 7 5 14 15 18 20 16 15 22 17 23 17 23 26 32 32 35 35 41 45 55 62 61 53 49 58 68 71 57 49 37 30 33 32 34
13 12 8 4 8 12 10 8 11 5 7 9 18 15 14 10 4 7 24 20 15 22 27 34 37 39 42 44 55 59 58 46 44 52 58 66 64 51 50 31 15 25 30 25
6 5 9 8 5 14 16 10 9 7 12 14 15 9 5 4 9 13 17 12 22 26 30 33 37 40 42 54 63 51 39 49 49 58 65 58 55 44 34 20 22 22 29 32
14 12 8 6 6 15 23 12 15 12 11 23 16 3 7 10 10 10 12 22 27 30 31 36 39 42 52 51 41 43 47 47 54 62 65 55 43 33 23 26 26 25 28 35
3 14 12 18 13 19 27 27 27 16 9 20 4 1 6 4 8 9 20 24 28 32 38 40 42 51 44 42 44 47 51 58 67 71 49 42 28 27 23 20 20 31 35 38
5 27 7 8 14 23 20 19 20 22 22 16 4 4 4 11 11 15 18 27 29 33 32 38 47 42 45 48 45 52 59 69 68 54 49 33 24 23 25 31 36 32 35 40
12 5 3 7 7 1 12 20 31 28 16 7 8 9 7 4 9 18 21 27 32 37 44 43 45 47 52 57 64 67 60 56 57 49 37 26 27 29 26 27 24 32 39 43
13 10 6 11 7 12 23 30 21 15 18 15 14 9 3 9 11 18 26 31 38 42 48 51 54 58 58 63 69 58 48 52 51 50 32 31 24 25 21 24 29 32 36 31
Wind_Direction_850mb
233 67 120 115 28 308 357 30 111 98 77 63 265 74 94 59 84 73 90 95 93 90 93 93 87 102 102 95 117 138 142 151 154 181 199 212 186 190 262 289 291 301 303 304
358 100 19 289 112 356 342 29 42 111 127 106 1 56 103 75 63 92 96 93 92 85 79 79 82 82 87 104 109 118 137 174 178 192 210 223 251 284 305 301 299 302 298 299
106 132 277 8 50 21 46 77 24 33 343 337 330 101 98 80 81 80 89 94 90 93 90 86 88 94 94 84 69 6 35 185 234 228 257 267 259 272 268 273 296 305 298 302
91 13 332 58 55 32 63 19 4 332 12 229 118 24 130 116 91 84 80 83 92 94 92 86 80 81 76 82 62 34 3 355 356 329 312 309 312 315 312 297 294 297 305 304
73 54 33 57 46 24 140 273 271 311 306 356 312 73 276 115 100 99 97 94 89 91 91 84 53 36 45 47 27 33 24 353 348 337 327 325 316 305 287 282 295 298 295 299
93 83 45 358 302 240 280 287 257 248 170 25 297 133 281 117 135 112 108 106 107 107 105 102 115 86 13 357 7 13 66 3 8 343 306 292 293 291 283 291 299 301 308 313
104 89 154 350 312 9 8 32 2 2 18 220 316 57 235 176 140 140 118 106 107 114 125 131 145 148 99 353 6 354 306 306 296 292 295 288 286 287 289 293 302 315 320 325
129 19 2 347 64 6 317 81 125 77 59 282 326 86 45 81 88 101 115 137 156 173 170 158 164 262 41 48 355 317 311 309 291 286 287 295 298 297 298 305 319 327 322 319
98 97 60 46 343 32 350 45 189 107 337 50 139 77 58 103 107 124 132 149 164 180 139 112 87 84 53 348 342 339 325 300 293 289 288 300 311 314 322 327 324 317 310 313
13 100 351 141 326 6 107 218 42 2 90 303 2 125 210 188 110 56 65 88 82 84 92 75 67 56 31 0 340 327 323 316 308 311 316 313 314 323 318 302 303 303 309 316
16 83 260 30 35 46 14 15 26 83 117 153 356 288 131 95 113 140 99 92 90 69 46 33 19 5 352 342 341 332 319 317 324 321 319 313 308 299 294 295 292 296 310 314
17 127 70 123 93 11 313 81 87 107 305 46 142 283 95 96 69 56 71 82 72 63 50 25 0 341 338 331 328 327 323 335 327 321 316 313 314 299 293 288 288 299 313 321
352 38 55 9 4 321 318 127 119 115 102 172 126 260 80 85 18 44 102 88 77 57 53 31 356 348 337 333 335 348 340 333 324 321 314 306 287 283 299 300 300 291 305 297
35 84 143 173 182 141 343 332 334 140 114 211 206 242 275 119 80 73 67 56 65 60 32 359 349 352 346 344 346 339 334 331 325 313 312 313 314 298 293 284 284 299 318 286
75 99 39 343 330 332 346 339 332 313 246 170 248 229 106 115 106 74 52 53 53 28 360 357 348 349 351 341 339 336 332 333 337 333 334 324 319 293 287 296 268 310 292 297
28 188 83 301 22 16 307 292 270 260 284 303 32 74 114 93 65 53 66 68 41 9 354 350 356 347 340 334 328 331 332 333 334 339 342 336 315 310 310 293 306 300 279 290
81 118 77 263 350 354 7 263 316 319 354 303 305 86 86 59 58 76 68 43 16 357 357 357 351 340 332 333 335 334 332 333 338 337 334 331 333 334 328 309 319 270 289 304
119 88 87 220 6 46 223 328 56 110 52 3 84 76 71 59 105 92 57 20 1 2 359 345 340 338 337 334 327 330 335 335 334 329 322 322 330 332 320 302 300 265 291 329
116 110 75 115 211 300 323 57 92 103 318 62 93 74 57 26 132 103 31 15 16 352 338 334 340 340 337 333 332 335 334 331 330 321 320 326 329 329 317 298 260 278 338 307
46 88 109 80 137 211 228 126 96 54 261 92 96 74 45 60 100 253 341 347 347 332 334 338 339 338 335 333 335 335 331 326 322 321 325 327 334 330 335 338 347 323 310 311
47 351 145 173 215 281 249 171 106 117 234 142 127 116 105 178 239 297 326 332 332 331 334 332 332 339 333 329 331 326 324 321 319 320 323 328 328 328 331 335 329 319 312 314
163 153 193 190 209 275 225 134 155 187 154 163 141 185 185 296 284 309 319 330 328 332 330 331 333 327 326 332 331 329 322 318 318 321 322 326 327 331 333 330 322 316 320 323
168 184 181 182 212 225 189 221 202 214 250 174 151 90 299 230 289 322 330 329 338 334 330 330 323 325 333 322 329 322 320 319 321 324 324 325 332 330 335 324 321 322 323 323
265 192 193 114 240 234 240 179 194 195 183 172 210 146 193 273 316 328 336 337 335 335 331 326 333 333 327 325 320 317 319 319 320 328 321 322 322 325 318 312 316 319 318 326
217 341 236 253 265 92 126 178 164 150 159 196 154 172 184 293 327 334 336 330 330 324 325 331 330 325 326 316 314 317 318 316 317 318 320 312 307 313 315 318 314 314 321 326
219 198 172 238 237 212 149 154 154 159 167 178 151 179 232 317 326 322 324 323 316 316 319 321 318 317 315 310 311 317 314 314 313 318 317 322 315 314 309 300 304 310 315 328